Tracking 20624 objects as of 28-Mar-2020
HD Live streaming from Space Station
objects crossing your sky now

CZ-3B R/B


CZ-3B R/B is no longer on orbit


NORAD ID: 39018
Int'l Code: 2012-067B
Perigee: N/A
Apogee: N/A
Inclination: N/A
Period: N/A
Semi major axis: N/A
RCS: N/A
Launch date: November 27, 2012
Source: People's Republic of China (PRC)
Launch site: Xichang Space Center, China (XSC)
Decay date: 2013-04-22

Note: This is a ROCKET BODY
aabbcc
Your satellite tracking list
Your tracking list is empty




NASA's NSSDC Master Catalog

Two Line Element Set (TLE):
1 39018U 12067B   13112.37867307  .99999999 -42212-4  41027-2 0  9990
2 39018 026.1315 172.8571 1810818 255.5129 119.1753 12.38878747  2518
Source of the keplerian elements: AFSPC